THORAD DELTA 1 DEB, 8170

Orbit data source: Space-Track

THORAD DELTA 1 DEB, 8170 is space debris in SSO originally from a launch on Fri, 15 Nov 1974 UTC launched from the Air Force Western Test Range (AFWTR). Debris objects in space refer to the collection of defunct objects orbiting the Earth. Examples of debris include non-operational satellites, rocket bodies, and fragments generated from explosions, collisions, or faulty payload assembly.

Loading next visibility...
Identifier
8170, 1974-089AL
Orbit
SSO
Country
Flag of USUS
Related business
Manufacturer
Unknown
Mission
Spacecraft
Bus & Motor
Unknown
Mass
Unknown
Launch date (UTC)
1974-11-15 (51 years ago)
Launch vehicle
Unknown
Launch site
Air Force Western Test Range (AFWTR)
Object type
Payload
Rocket body
Debris
Shape & HBR
Unknown shape, 0.1 m
Radar Cross Section
Small (<0.1 m²)

Expand to show TLE details & history
Last TLE update: 1 day ago

TLE from 1 day ago
0 THORAD DELTA 1 DEB
1 08170U 74089AL  25315.17273404  .00028746  00000-0  14832-1 0  9994
2 08170 101.5833 280.3253 0056351 254.7933 122.5802 14.14149494459071
Epoch: 2025-11-11T04:08Z
TLE epoch observation values (Epoch: 2025-11-11T04:08:44.221Z)
Latitude
17.53055°
Longitude
163.88524°
Altitude
869.504 km
Speed
7.408 km/s
True Right ascension
18h 26m 31s
True Declination
17° 26' 01"
Sunlit
Object was in daylight at epoch
Visualization orbit readout
Latitude
Unknown
Longitude
Unknown
Altitude
Unknown
Speed
Unknown
Apparent Right ascension
Unknown
Apparent Declination
Unknown
Sunlit
N/A
Visualization observer readout
Local Sidereal Time
02:09:19
Azimuth
Unknown
Elevation
Unknown
Doppler factor
Unknown
Orbital elements
Apogee altitude
883.221 km
Perigee altitude
801.843 km
Semi-major axis
7,220.669 km
Eccentricity
0.00564
Inclination
101.5833°
RAAN
280.3253°
Arg. of periapsis
254.7933°
True anomaly
123.12226°
Mean anomaly
122.5802°
Eccentric anomaly
122.85143°
Mean motion
3.53734 °/min
Orbital period
101.77 mins
BSTAR
0.014832
Loading maneuver chart data...
Computing Atmospheric mass density...

Documentation

Showing up to 5 results
|